N2QDK-2 Weather Reports


Display with metric or nautical units.
time (UTC)temp
F
wind
direction
speed
MPH
gust
MPH
rain 1hr
in
rain 24hr
in
rain mn
in
humidity
%
barometer
mb
20181216102944 35 15 3.0 5.0 0.00 0.00 0.00 86 1017.7
20181216095943 35 80 2.0 5.0 0.00 0.00 0.00 87 1018.3
20181216092942 35 80 3.0 5.0 0.00 0.00 0.00 87 1018.1
20181216085942 35 82 0.0 0.0 0.00 0.00 0.00 88 1018.4
20181216082942 35 82 0.0 5.0 0.00 0.00 0.00 89 1018.7
20181216075940 35 67 0.0 0.0 0.00 0.00 0.00 90 1019.1
20181216072939 36 67 0.0 3.0 0.00 0.00 0.00 90 1019.9
20181216070008 37 107 0.0 6.0 0.00 0.00 0.00 90 1020.1
20181216062907 37 82 5.0 9.0 0.00 0.00 0.00 90 1020.2
20181216055936 37 69 3.0 9.0 0.00 0.00 0.00 90 1020.5
20181216052935 37 65 3.0 6.0 0.00 0.00 0.00 90 1021.1
20181216050005 37 49 2.0 8.0 0.00 0.00 0.00 89 1021.7
20181216042934 37 17 3.0 6.0 0.00 0.00 0.00 88 1022.1
20181216035933 37 47 3.0 6.0 0.00 0.00 0.00 88 1022.6
20181216032932 37 121 0.0 5.0 0.00 0.00 0.00 86 1023.0
20181216030001 38 95 3.0 9.0 0.00 0.00 0.00 85 1023.1
20181216023000 38 100 3.0 11.0 0.00 0.00 0.00 85 1022.9
20181216015959 38 61 0.0 9.0 0.00 0.00 0.00 85 1022.8
20181216012958 38 65 3.0 9.0 0.00 0.00 0.00 86 1022.8
20181216005958 38 30 2.0 6.0 0.00 0.00 0.00 86 1023.2
20181216002957 38 360 2.0 6.0 0.00 0.00 0.00 86 1023.0
20181215235926 38 80 0.0 6.0 0.00 0.00 0.00 86 1022.8
20181215232925 38 60 3.0 6.0 0.00 0.00 0.00 86 1022.7
20181215225954 38 44 2.0 6.0 0.00 0.00 0.00 87 1022.8
20181215222953 38 73 0.0 6.0 0.00 0.00 0.00 88 1022.7
20181215215952 38 72 2.0 6.0 0.00 0.00 0.00 88 1022.2
20181215212951 39 49 2.0 6.0 0.00 0.00 0.00 86 1022.1
20181215205951 39 90 0.0 9.0 0.00 0.00 0.00 85 1022.2
20181215202950 40 70 3.0 12.0 0.00 0.00 0.00 83 1021.7
20181215195950 40 73 3.0 9.0 0.00 0.00 0.00 83 1022.1
20181215192948 40 76 2.0 12.0 0.00 0.00 0.00 83 1022.2
20181215185947 41 74 2.0 9.0 0.00 0.00 0.00 83 1022.5
20181215182946 41 88 2.0 9.0 0.00 0.00 0.00 82 1022.4
20181215175945 41 71 5.0 11.0 0.00 0.00 0.00 82 1022.3
20181215172944 40 74 5.0 6.0 0.00 0.00 0.00 83 1022.4
20181215165943 40 80 0.0 8.0 0.00 0.00 0.00 86 1022.9
20181215162942 40 16 5.0 8.0 0.00 0.00 0.00 86 1022.6
20181215155942 40 41 5.0 9.0 0.00 0.00 0.00 87 1023.2
20181215152941 40 37 5.0 9.0 0.00 0.00 0.00 89 1023.8
20181215145910 38 61 2.0 3.0 0.00 0.00 0.00 95 1023.6
20181215142939 37 22 0.0 0.0 0.00 0.00 0.00 95 1024.1
20181215135938 37 22 0.0 0.0 0.00 0.00 0.00 94 1023.8
20181215132937 37 22 0.0 0.0 0.00 0.00 0.00 94 1023.3
20181215130007 38 22 0.0 0.0 0.00 0.00 0.00 94 1023.6
20181215123005 39 30 0.0 5.0 0.00 0.00 0.00 94 1023.6
20181215120005 39 286 0.0 0.0 0.00 0.00 0.00 94 1023.3
20181215112934 40 286 0.0 8.0 0.00 0.00 0.00 94 1022.9
20181215110003 40 49 2.0 5.0 0.00 0.00 0.00 94 1022.8